Find Starlink 4681

NORAD ID: 53594 Int'l Des: 2022-104 Owner: SPXS Country: US Constellation: starlink operational
LEOCIRCULAR

当前视图

正在加载3D地球...

About Starlink 4681

Starlink 4681 (NORAD 53594) is a starlink constellation satellite (v1.5) launched Aug 28, 2022 by SPXS of US. It operates in LEO, CIRCULAR orbit with a mass of 300.00 kg.

关于 Starlink 4681

正在加载描述...

即将过境

Passes for default location (London). Set your location on the main map for personalized predictions.

高度历史

Loading altitude history...

两行轨道根数

1 53594U 22104G 26175.43771639 .00646786 23812-3 60799-3 0 9996
2 53594 53.2114 89.0216 0002326 255.4675 104.6104 16.11491925212704
Epoch: Jun 24, 2026 • Age: 8 hours

当前状态

高度 248.4 km
速度 7.76 km/s
星下点 47.65°N, 44.27°W
发射日期 Aug 28, 2022
运行时间 3.8 years
类型 internet

技术详情

分类 Payload
质量 300.00 kg
干质量 290.00 kg
总质量 300.00 kg
长度 0.20 m
直径 2.80 m
跨度 9.00 m
形状 Box + pan
制造商 SPXS
平台类型 Starlink
阶段状态 In Orbit
所有者/国家 SPXS/US

Most Searched